| time (UTC) | temp C | wind direction | speed KPH | gust KPH | rain 1hr cm | rain 24hr cm | rain mn cm | humidity % | barometer mb |
| 20260506025646 | 17 | 165 | 4.8 | 8.0 | 0.00 | 0.05 | 0.05 | 50 | 1016.7 |
| 20260506025142 | 17 | 106 | 3.2 | 8.0 | 0.00 | 0.05 | 0.05 | 49 | 1016.8 |
| 20260506024640 | 18 | 184 | 4.8 | 9.7 | 0.00 | 0.05 | 0.05 | 49 | 1016.8 |
| 20260506024136 | 18 | 189 | 1.6 | 8.0 | 0.00 | 0.05 | 0.05 | 49 | 1016.9 |
| 20260506023632 | 19 | 218 | 4.8 | 4.8 | 0.00 | 0.05 | 0.05 | 46 | 1016.7 |
| 20260506023130 | 20 | 259 | 0.0 | 0.0 | 0.00 | 0.05 | 0.05 | 44 | 1016.7 |
| 20260506022627 | 20 | 251 | 1.6 | 1.6 | 0.00 | 0.05 | 0.05 | 43 | 1016.8 |
| 20260506022124 | 21 | 235 | 3.2 | 4.8 | 0.00 | 0.05 | 0.05 | 41 | 1016.8 |
| 20260506021622 | 21 | 259 | 0.0 | 1.6 | 0.00 | 0.05 | 0.05 | 41 | 1016.4 |
| 20260506021119 | 21 | 262 | 1.6 | 1.6 | 0.00 | 0.05 | 0.05 | 39 | 1016.3 |
| 20260506020616 | 22 | 268 | 0.0 | 0.0 | 0.00 | 0.05 | 0.05 | 35 | 1016.3 |
| 20260506020114 | 23 | 306 | 3.2 | 4.8 | 0.00 | 0.05 | 0.05 | 35 | 1016.2 |
| 20260506015611 | 23 | 263 | 0.0 | 0.0 | 0.00 | 0.05 | 0.05 | 34 | 1016.2 |
| 20260506015108 | 23 | 263 | 1.6 | 1.6 | 0.00 | 0.05 | 0.05 | 35 | 1016.2 |
| 20260506014606 | 22 | 261 | 0.0 | 0.0 | 0.00 | 0.05 | 0.05 | 35 | 1016.1 |
| 20260506014101 | 22 | 283 | 1.6 | 3.2 | 0.00 | 0.05 | 0.05 | 33 | 1016.1 |
| 20260506013559 | 23 | 302 | 3.2 | 4.8 | 0.00 | 0.05 | 0.05 | 36 | 1016.4 |
| 20260506013056 | 23 | 264 | 0.0 | 1.6 | 0.00 | 0.05 | 0.05 | 33 | 1016.2 |
| 20260506012552 | 23 | 284 | 3.2 | 3.2 | 0.00 | 0.05 | 0.05 | 33 | 1016.0 |
| 20260506012048 | 22 | 284 | 1.6 | 3.2 | 0.00 | 0.05 | 0.05 | 34 | 1016.4 |
| 20260506011547 | 22 | 259 | 0.0 | 0.0 | 0.00 | 0.05 | 0.05 | 35 | 1016.1 |
| 20260506011042 | 21 | 211 | 0.0 | 1.6 | 0.00 | 0.05 | 0.05 | 36 | 1016.3 |
| 20260506010536 | 22 | 246 | 1.6 | 3.2 | 0.00 | 0.05 | 0.05 | 37 | 1016.7 |
| 20260506010032 | 22 | 222 | 1.6 | 1.6 | 0.00 | 0.05 | 0.05 | 35 | 1016.3 |
| 20260506005529 | 22 | 304 | 3.2 | 4.8 | 0.00 | 0.05 | 0.05 | 36 | 1016.2 |
| 20260506005025 | 21 | 255 | 0.0 | 0.0 | 0.00 | 0.05 | 0.05 | 37 | 1016.2 |
| 20260506004523 | 21 | 278 | 3.2 | 4.8 | 0.00 | 0.05 | 0.05 | 34 | 1016.5 |
| 20260506004020 | 21 | 249 | 0.0 | 0.0 | 0.00 | 0.05 | 0.05 | 33 | 1016.4 |
| 20260506003516 | 21 | 268 | 1.6 | 3.2 | 0.00 | 0.05 | 0.05 | 39 | 1016.5 |
| 20260506003012 | 21 | 255 | 0.0 | 0.0 | 0.00 | 0.05 | 0.05 | 37 | 1016.4 |
| 20260506002508 | 21 | 234 | 0.0 | 1.6 | 0.00 | 0.05 | 0.05 | 36 | 1016.3 |
| 20260506002004 | 21 | 196 | 1.6 | 3.2 | 0.00 | 0.05 | 0.05 | 38 | 1016.5 |
| 20260506001500 | 21 | 193 | 4.8 | 9.7 | 0.00 | 0.05 | 0.05 | 37 | 1016.4 |
| 20260506000958 | 21 | 241 | 1.6 | 1.6 | 0.00 | 0.05 | 0.05 | 37 | 1016.4 |
| 20260506000455 | 21 | 257 | 0.0 | 0.0 | 0.00 | 0.05 | 0.05 | 38 | 1016.4 |
| 20260505235952 | 22 | 214 | 3.2 | 4.8 | 0.00 | 0.05 | 0.05 | 37 | 1016.3 |
| 20260505235451 | 22 | 168 | 3.2 | 4.8 | 0.00 | 0.05 | 0.05 | 36 | 1016.3 |
| 20260505234947 | 22 | 260 | 1.6 | 4.8 | 0.00 | 0.05 | 0.05 | 40 | 1016.5 |
| 20260505234444 | 21 | 262 | 0.0 | 0.0 | 0.00 | 0.05 | 0.05 | 38 | 1016.3 |
| 20260505233941 | 22 | 230 | 1.6 | 3.2 | 0.00 | 0.05 | 0.05 | 36 | 1016.4 |
| 20260505233439 | 21 | 267 | 1.6 | 1.6 | 0.00 | 0.05 | 0.05 | 39 | 1016.7 |
| 20260505232936 | 21 | 272 | 0.0 | 1.6 | 0.00 | 0.05 | 0.05 | 37 | 1016.4 |
| 20260505232434 | 22 | 231 | 3.2 | 4.8 | 0.00 | 0.05 | 0.05 | 37 | 1016.9 |
| 20260505231931 | 22 | 247 | 1.6 | 3.2 | 0.00 | 0.05 | 0.05 | 37 | 1016.7 |
| 20260505231428 | 20 | 272 | 0.0 | 1.6 | 0.00 | 0.05 | 0.05 | 39 | 1016.8 |
| 20260505230926 | 21 | 238 | 1.6 | 1.6 | 0.00 | 0.05 | 0.05 | 37 | 1017.1 |
| 20260505230423 | 20 | 187 | 4.8 | 8.0 | 0.00 | 0.05 | 0.05 | 39 | 1016.8 |
| 20260505225919 | 20 | 240 | 1.6 | 1.6 | 0.00 | 0.05 | 0.05 | 40 | 1017.0 |
| 20260505225417 | 20 | 285 | 3.2 | 3.2 | 0.00 | 0.05 | 0.05 | 39 | 1016.9 |
| 20260505224912 | 23 | 163 | 3.2 | 4.8 | 0.00 | 0.05 | 0.05 | 37 | 1016.8 |
| 20260505224410 | 23 | 270 | 1.6 | 1.6 | 0.00 | 0.05 | 0.05 | 39 | 1017.0 |
| 20260505223906 | 22 | 268 | 1.6 | 1.6 | 0.00 | 0.05 | 0.05 | 43 | 1017.1 |
| 20260505223403 | 22 | 258 | 1.6 | 3.2 | 0.00 | 0.05 | 0.05 | 39 | 1017.2 |
| 20260505222859 | 22 | 260 | 4.8 | 8.0 | 0.00 | 0.05 | 0.05 | 39 | 1017.1 |
| 20260505222356 | 21 | 273 | 3.2 | 4.8 | 0.00 | 0.05 | 0.05 | 42 | 1017.3 |
| 20260505221852 | 20 | 221 | 0.0 | 1.6 | 0.00 | 0.05 | 0.05 | 44 | 1017.2 |
| 20260505221349 | 22 | 191 | 1.6 | 1.6 | 0.00 | 0.05 | 0.05 | 38 | 1017.8 |
| 20260505220846 | 21 | 264 | 1.6 | 1.6 | 0.00 | 0.05 | 0.05 | 45 | 1017.8 |
| 20260505220343 | 21 | 266 | 3.2 | 4.8 | 0.00 | 0.05 | 0.05 | 41 | 1017.5 |
| 20260505215841 | 20 | 271 | 1.6 | 1.6 | 0.00 | 0.05 | 0.05 | 41 | 1017.9 |
| 20260505215339 | 22 | 257 | 3.2 | 3.2 | 0.00 | 0.05 | 0.05 | 42 | 1017.8 |
| 20260505214837 | 21 | 267 | 11.3 | 14.5 | 0.00 | 0.05 | 0.05 | 45 | 1017.9 |
| 20260505214334 | 20 | 258 | 3.2 | 3.2 | 0.00 | 0.05 | 0.05 | 42 | 1017.8 |
| 20260505213831 | 19 | 243 | 0.0 | 1.6 | 0.00 | 0.05 | 0.05 | 45 | 1017.9 |
| 20260505213329 | 19 | 87 | 4.8 | 8.0 | 0.00 | 0.05 | 0.05 | 46 | 1017.9 |
| 20260505212825 | 20 | 262 | 0.0 | 0.0 | 0.00 | 0.05 | 0.05 | 46 | 1017.9 |
| 20260505212322 | 20 | 264 | 1.6 | 1.6 | 0.00 | 0.05 | 0.05 | 46 | 1018.3 |
| 20260505211818 | 17 | 248 | 0.0 | 0.0 | 0.00 | 0.05 | 0.05 | 52 | 1018.3 |
| 20260505211316 | 20 | 260 | 0.0 | 1.6 | 0.00 | 0.05 | 0.05 | 46 | 1018.3 |
| 20260505210812 | 20 | 308 | 3.2 | 3.2 | 0.00 | 0.05 | 0.05 | 46 | 1018.5 |
| 20260505210309 | 19 | 270 | 4.8 | 4.8 | 0.00 | 0.05 | 0.05 | 49 | 1018.4 |
| 20260505205806 | 20 | 209 | 1.6 | 1.6 | 0.00 | 0.05 | 0.05 | 45 | 1018.5 |
| 20260505205305 | 21 | 266 | 3.2 | 3.2 | 0.00 | 0.05 | 0.05 | 43 | 1018.6 |
| 20260505204801 | 21 | 228 | 1.6 | 3.2 | 0.00 | 0.05 | 0.05 | 49 | 1018.5 |
| 20260505204259 | 20 | 242 | 1.6 | 3.2 | 0.00 | 0.05 | 0.05 | 52 | 1018.6 |
| 20260505203755 | 19 | 268 | 0.0 | 1.6 | 0.00 | 0.05 | 0.05 | 50 | 1018.7 |
| 20260505203253 | 18 | 267 | 0.0 | 1.6 | 0.00 | 0.05 | 0.05 | 54 | 1018.8 |
| 20260505202749 | 18 | 234 | 1.6 | 1.6 | 0.00 | 0.05 | 0.05 | 52 | 1018.5 |
| 20260505202244 | 17 | 250 | 1.6 | 1.6 | 0.00 | 0.05 | 0.05 | 51 | 1018.6 |
| 20260505201741 | 20 | 253 | 0.0 | 0.0 | 0.00 | 0.05 | 0.05 | 51 | 1018.6 |
| 20260505201239 | 19 | 269 | 1.6 | 3.2 | 0.00 | 0.05 | 0.05 | 54 | 1018.6 |
| 20260505200737 | 18 | 262 | 0.0 | 0.0 | 0.00 | 0.05 | 0.05 | 53 | 1018.7 |
| 20260505200235 | 19 | 253 | 0.0 | 0.0 | 0.00 | 0.05 | 0.05 | 53 | 1018.8 |
| 20260505195729 | 18 | 245 | 3.2 | 3.2 | 0.00 | 0.05 | 0.05 | 57 | 1018.8 |
| 20260505195227 | 18 | 257 | 0.0 | 1.6 | 0.00 | 0.05 | 0.05 | 53 | 1019.1 |
| 20260505194724 | 18 | 252 | 0.0 | 0.0 | 0.00 | 0.05 | 0.05 | 55 | 1019.1 |
| 20260505194220 | 17 | 259 | 0.0 | 1.6 | 0.00 | 0.05 | 0.05 | 58 | 1018.9 |
| 20260505193716 | 17 | 253 | 0.0 | 0.0 | 0.00 | 0.05 | 0.05 | 58 | 1019.2 |
| 20260505193214 | 17 | 216 | 1.6 | 1.6 | 0.00 | 0.05 | 0.05 | 58 | 1019.1 |
| 20260505192712 | 17 | 238 | 1.6 | 1.6 | 0.00 | 0.05 | 0.05 | 61 | 1019.2 |
| 20260505192209 | 17 | 263 | 0.0 | 0.0 | 0.00 | 0.05 | 0.05 | 63 | 1019.1 |
| 20260505191708 | 16 | 182 | 1.6 | 1.6 | 0.00 | 0.05 | 0.05 | 58 | 1019.2 |
| 20260505191206 | 16 | 335 | 4.8 | 4.8 | 0.00 | 0.05 | 0.05 | 59 | 1019.1 |
| 20260505190702 | 16 | 279 | 3.2 | 3.2 | 0.00 | 0.05 | 0.05 | 61 | 1018.8 |
| 20260505190201 | 16 | 46 | 6.4 | 9.7 | 0.00 | 0.05 | 0.05 | 61 | 1018.9 |
| 20260505185658 | 16 | 281 | 4.8 | 4.8 | 0.00 | 0.05 | 0.05 | 64 | 1019.1 |
| 20260505185155 | 17 | 306 | 0.0 | 1.6 | 0.00 | 0.05 | 0.05 | 62 | 1019.2 |
| 20260505184651 | 17 | 244 | 1.6 | 3.2 | 0.00 | 0.05 | 0.05 | 68 | 1019.1 |
| 20260505184148 | 16 | 269 | 1.6 | 1.6 | 0.00 | 0.05 | 0.05 | 67 | 1018.9 |
| 20260505183645 | 16 | 275 | 0.0 | 1.6 | 0.00 | 0.05 | 0.05 | 66 | 1018.9 |
| 20260505183143 | 15 | 272 | 0.0 | 1.6 | 0.00 | 0.05 | 0.05 | 69 | 1019.2 |
| 20260505182638 | 15 | 65 | 4.8 | 4.8 | 0.00 | 0.05 | 0.05 | 63 | 1019.2 |
| 20260505182136 | 15 | 282 | 1.6 | 1.6 | 0.00 | 0.05 | 0.05 | 66 | 1019.3 |
| 20260505181632 | 15 | 185 | 1.6 | 3.2 | 0.00 | 0.05 | 0.05 | 64 | 1019.2 |
| 20260505181130 | 15 | 242 | 1.6 | 3.2 | 0.00 | 0.05 | 0.05 | 65 | 1019.4 |
| 20260505180626 | 15 | 252 | 1.6 | 3.2 | 0.00 | 0.05 | 0.05 | 70 | 1019.2 |
| 20260505180123 | 13 | 254 | 1.6 | 1.6 | 0.00 | 0.05 | 0.05 | 75 | 1018.9 |
| 20260505175619 | 13 | 254 | 0.0 | 0.0 | 0.00 | 0.05 | 0.05 | 73 | 1019.3 |
| 20260505175116 | 13 | 216 | 1.6 | 1.6 | 0.00 | 0.05 | 0.05 | 71 | 1018.9 |
| 20260505174612 | 12 | 270 | 0.0 | 0.0 | 0.00 | 0.05 | 0.05 | 76 | 1019.1 |
| 20260505174108 | 12 | 256 | 0.0 | 1.6 | 0.00 | 0.05 | 0.05 | 73 | 1018.9 |
| 20260505173605 | 12 | 248 | 1.6 | 1.6 | 0.00 | 0.05 | 0.05 | 73 | 1018.9 |
| 20260505173102 | 12 | 253 | 0.0 | 1.6 | 0.00 | 0.05 | 0.05 | 72 | 1018.9 |
| 20260505172559 | 12 | 261 | 0.0 | 1.6 | 0.00 | 0.05 | 0.05 | 77 | 1018.9 |
| 20260505172056 | 12 | 243 | 0.0 | 1.6 | 0.00 | 0.05 | 0.05 | 74 | 1018.8 |
| 20260505171551 | 12 | 267 | 0.0 | 0.0 | 0.00 | 0.05 | 0.05 | 78 | 1018.7 |
| 20260505171048 | 11 | 256 | 1.6 | 1.6 | 0.00 | 0.05 | 0.05 | 77 | 1018.9 |
| 20260505170544 | 11 | 254 | 0.0 | 1.6 | 0.00 | 0.05 | 0.05 | 81 | 1018.5 |
| 20260505170041 | 11 | 121 | 1.6 | 3.2 | 0.00 | 0.05 | 0.05 | 80 | 1018.7 |
| 20260505165537 | 10 | 225 | 0.0 | 1.6 | 0.00 | 0.05 | 0.05 | 83 | 1018.9 |
| 20260505165032 | 10 | 238 | 1.6 | 1.6 | 0.00 | 0.05 | 0.05 | 82 | 1018.9 |
| 20260505164529 | 10 | 198 | 1.6 | 3.2 | 0.00 | 0.05 | 0.05 | 83 | 1018.7 |
| 20260505164027 | 10 | 277 | 1.6 | 1.6 | 0.00 | 0.05 | 0.05 | 83 | 1018.7 |
| 20260505163525 | 10 | 252 | 0.0 | 0.0 | 0.00 | 0.05 | 0.05 | 83 | 1018.6 |
| 20260505163022 | 10 | 229 | 1.6 | 1.6 | 0.00 | 0.05 | 0.05 | 80 | 1018.7 |
| 20260505162515 | 10 | 275 | 0.0 | 1.6 | 0.00 | 0.05 | 0.05 | 82 | 1018.6 |
| 20260505162012 | 10 | 276 | 0.0 | 0.0 | 0.00 | 0.05 | 0.05 | 83 | 1018.5 |
| 20260505161508 | 10 | 276 | 0.0 | 0.0 | 0.00 | 0.05 | 0.05 | 81 | 1018.6 |
| 20260505161006 | 10 | 275 | 0.0 | 0.0 | 0.00 | 0.05 | 0.05 | 84 | 1018.6 |
| 20260505160504 | 9 | 276 | 1.6 | 1.6 | 0.00 | 0.05 | 0.05 | 88 | 1018.3 |
| 20260505152939 | 8 | 275 | 0.0 | 0.0 | 0.00 | 0.05 | 0.05 | 97 | 1018.3 |
| 20260505152437 | 8 | 275 | 0.0 | 0.0 | 0.00 | 0.05 | 0.05 | 97 | 1018.0 |
| 20260505151937 | 8 | 275 | 0.0 | 1.6 | 0.00 | 0.05 | 0.05 | 98 | 1017.9 |
| 20260505151433 | 8 | 276 | 1.6 | 3.2 | 0.00 | 0.05 | 0.05 | 98 | 1017.9 |
| 20260505150931 | 7 | 275 | 0.0 | 0.0 | 0.00 | 0.05 | 0.05 | 98 | 1017.7 |
| 20260505150428 | 7 | 276 | 0.0 | 1.6 | 0.00 | 0.05 | 0.05 | 98 | 1017.7 |
| 20260505140358 | 7 | 267 | 0.0 | 0.0 | 0.00 | 0.05 | 0.05 | 99 | 1017.3 |
| 20260505124811 | 7 | 269 | 0.0 | 0.0 | 0.00 | 0.05 | 0.05 | 99 | 1016.5 |
| 20260505124308 | 7 | 269 | 0.0 | 0.0 | 0.00 | 0.05 | 0.05 | 99 | 1016.7 |
| 20260505123804 | 7 | 268 | 0.0 | 0.0 | 0.00 | 0.05 | 0.05 | 99 | 1016.5 |
| 20260505123301 | 7 | 268 | 0.0 | 0.0 | 0.00 | 0.05 | 0.05 | 99 | 1016.2 |
| 20260505122757 | 7 | 268 | 0.0 | 0.0 | 0.00 | 0.05 | 0.05 | 99 | 1016.5 |
| 20260505122255 | 7 | 268 | 0.0 | 0.0 | 0.00 | 0.05 | 0.05 | 99 | 1016.5 |
| 20260505121751 | 7 | 269 | 0.0 | 0.0 | 0.00 | 0.05 | 0.05 | 99 | 1016.5 |
| 20260505121248 | 7 | 269 | 0.0 | 0.0 | 0.00 | 0.05 | 0.05 | 99 | 1016.4 |
| 20260505120744 | 7 | 268 | 0.0 | 0.0 | 0.00 | 0.05 | 0.05 | 99 | 1016.5 |
| 20260505120240 | 7 | 268 | 0.0 | 0.0 | 0.00 | 0.05 | 0.05 | 99 | 1016.4 |
| 20260505115739 | 7 | 268 | 0.0 | 0.0 | 0.00 | 0.05 | 0.05 | 99 | 1016.3 |
| 20260505115237 | 7 | 271 | 0.0 | 0.0 | 0.00 | 0.05 | 0.05 | 99 | 1016.4 |
| 20260505114734 | 7 | 271 | 0.0 | 0.0 | 0.00 | 0.05 | 0.05 | 99 | 1016.3 |
| 20260505114230 | 7 | 271 | 0.0 | 0.0 | 0.00 | 0.05 | 0.05 | 99 | 1016.3 |
| 20260505113727 | 7 | 272 | 0.0 | 0.0 | 0.00 | 0.05 | 0.05 | 99 | 1016.3 |
| 20260505113223 | 7 | 257 | 0.0 | 0.0 | 0.00 | 0.05 | 0.05 | 99 | 1016.4 |
| 20260505112720 | 7 | 256 | 0.0 | 0.0 | 0.00 | 0.05 | 0.05 | 99 | 1016.7 |
| 20260505112218 | 7 | 256 | 0.0 | 0.0 | 0.00 | 0.05 | 0.05 | 99 | 1016.3 |
| 20260505111717 | 7 | 256 | 0.0 | 0.0 | 0.00 | 0.05 | 0.05 | 98 | 1016.5 |
| 20260505111214 | 7 | 256 | 0.0 | 0.0 | 0.00 | 0.05 | 0.05 | 98 | 1016.3 |
| 20260505110709 | 7 | 256 | 0.0 | 0.0 | 0.00 | 0.05 | 0.05 | 98 | 1016.3 |
| 20260505110207 | 7 | 253 | 0.0 | 0.0 | 0.00 | 0.05 | 0.05 | 98 | 1016.3 |
| 20260505102142 | 7 | 257 | 0.0 | 0.0 | 0.00 | 0.05 | 0.05 | 98 | 1016.7 |
| 20260505101641 | 7 | 257 | 0.0 | 0.0 | 0.00 | 0.05 | 0.05 | 98 | 1016.7 |
| 20260505101137 | 7 | 257 | 0.0 | 0.0 | 0.00 | 0.05 | 0.05 | 98 | 1016.7 |
| 20260505100633 | 7 | 257 | 0.0 | 0.0 | 0.00 | 0.05 | 0.05 | 98 | 1016.5 |
| 20260505100130 | 7 | 257 | 0.0 | 0.0 | 0.00 | 0.05 | 0.05 | 98 | 1016.5 |
| 20260505095626 | 7 | 257 | 0.0 | 0.0 | 0.00 | 0.05 | 0.05 | 98 | 1016.7 |
| 20260505095123 | 7 | 257 | 0.0 | 0.0 | 0.18 | 0.05 | 0.05 | 98 | 1016.8 |
| 20260505094620 | 7 | 258 | 0.0 | 0.0 | 0.18 | 0.05 | 0.05 | 98 | 1016.8 |
| 20260505094116 | 7 | 258 | 0.0 | 0.0 | 0.00 | 0.03 | 0.03 | 98 | 1016.5 |
| 20260505093612 | 7 | 258 | 0.0 | 0.0 | 0.00 | 0.03 | 0.03 | 98 | 1016.8 |
| 20260505093110 | 7 | 255 | 0.0 | 0.0 | 0.00 | 0.03 | 0.03 | 98 | 1017.1 |
| 20260505092607 | 7 | 248 | 0.0 | 0.0 | 0.00 | 0.03 | 0.03 | 98 | 1016.8 |
| 20260505092106 | 7 | 264 | 0.0 | 0.0 | 0.00 | 0.03 | 0.03 | 98 | 1016.8 |
| 20260505091602 | 7 | 263 | 0.0 | 0.0 | 0.00 | 0.03 | 0.03 | 98 | 1016.8 |
| 20260505091100 | 7 | 266 | 0.0 | 0.0 | 0.00 | 0.03 | 0.03 | 98 | 1017.0 |
| 20260505090558 | 7 | 265 | 1.6 | 1.6 | 0.00 | 0.03 | 0.03 | 98 | 1016.8 |
| 20260505090056 | 7 | 265 | 0.0 | 0.0 | 0.00 | 0.03 | 0.03 | 98 | 1016.9 |
| 20260505085553 | 7 | 265 | 0.0 | 0.0 | 0.00 | 0.03 | 0.03 | 98 | 1017.0 |
| 20260505085051 | 7 | 263 | 0.0 | 0.0 | 0.00 | 0.03 | 0.03 | 98 | 1017.1 |
| 20260505084549 | 7 | 261 | 0.0 | 0.0 | 0.00 | 0.03 | 0.03 | 98 | 1017.0 |
| 20260505084047 | 7 | 261 | 0.0 | 0.0 | 0.00 | 0.03 | 0.03 | 98 | 1017.1 |
| 20260505083543 | 7 | 261 | 0.0 | 0.0 | 0.00 | 0.03 | 0.03 | 98 | 1017.0 |
| 20260505083040 | 7 | 265 | 0.0 | 0.0 | 0.00 | 0.03 | 0.03 | 98 | 1017.1 |
| 20260505082536 | 7 | 281 | 1.6 | 1.6 | 0.00 | 0.03 | 0.03 | 98 | 1016.9 |
| 20260505082033 | 7 | 253 | 0.0 | 0.0 | 0.00 | 0.03 | 0.03 | 98 | 1017.2 |
| 20260505081529 | 7 | 256 | 0.0 | 0.0 | 0.00 | 0.03 | 0.03 | 97 | 1017.0 |
| 20260505081027 | 7 | 259 | 0.0 | 0.0 | 0.00 | 0.03 | 0.03 | 97 | 1017.1 |
| 20260505080523 | 7 | 254 | 1.6 | 1.6 | 0.00 | 0.03 | 0.03 | 97 | 1017.2 |
| 20260505080020 | 7 | 266 | 0.0 | 1.6 | 0.00 | 0.03 | 0.03 | 97 | 1017.2 |
| 20260505075515 | 7 | 266 | 0.0 | 0.0 | 0.00 | 0.03 | 0.03 | 97 | 1017.2 |
| 20260505075013 | 7 | 256 | 0.0 | 0.0 | 0.00 | 0.03 | 0.03 | 97 | 1017.0 |
| 20260505074510 | 7 | 256 | 0.0 | 0.0 | 0.00 | 0.03 | 0.03 | 97 | 1017.0 |
| 20260505074007 | 7 | 271 | 1.6 | 3.2 | 0.00 | 0.03 | 0.03 | 97 | 1016.9 |
| 20260505073504 | 7 | 270 | 1.6 | 3.2 | 0.13 | 0.03 | 0.03 | 97 | 1017.2 |
| 20260505073002 | 7 | 251 | 1.6 | 3.2 | 0.13 | 0.03 | 0.03 | 97 | 1017.2 |
| 20260505072458 | 7 | 249 | 0.0 | 0.0 | 0.00 | 0.00 | 0.00 | 97 | 1017.6 |
| 20260505071954 | 7 | 248 | 0.0 | 0.0 | 0.00 | 0.00 | 0.00 | 97 | 1017.6 |
| 20260505071449 | 7 | 257 | 0.0 | 0.0 | 0.00 | 0.00 | 0.00 | 97 | 1017.5 |
| 20260505070948 | 7 | 257 | 0.0 | 0.0 | 0.00 | 0.00 | 0.00 | 97 | 1017.5 |
| 20260505070444 | 7 | 255 | 0.0 | 0.0 | 0.18 | 0.00 | 0.00 | 97 | 1017.3 |
| 20260505065940 | 7 | 252 | 0.0 | 0.0 | 0.18 | 1.35 | 1.35 | 97 | 1017.2 |
| 20260505065437 | 7 | 250 | 0.0 | 0.0 | 0.13 | 1.32 | 1.32 | 97 | 1017.1 |
| 20260505064933 | 7 | 254 | 0.0 | 0.0 | 0.13 | 1.32 | 1.32 | 97 | 1017.1 |
| 20260505064431 | 7 | 218 | 1.6 | 1.6 | 0.18 | 1.30 | 1.30 | 97 | 1016.7 |
| 20260505063929 | 7 | 234 | 0.0 | 0.0 | 0.36 | 1.30 | 1.30 | 97 | 1016.8 |
| 20260505063425 | 7 | 238 | 1.6 | 1.6 | 0.18 | 1.27 | 1.27 | 97 | 1016.5 |
| 20260505062922 | 7 | 211 | 1.6 | 1.6 | 0.00 | 1.24 | 1.24 | 97 | 1016.7 |
| 20260505062419 | 7 | 255 | 0.0 | 0.0 | 0.00 | 1.24 | 1.24 | 97 | 1016.8 |
| 20260505061915 | 7 | 252 | 0.0 | 0.0 | 0.00 | 1.24 | 1.24 | 97 | 1016.9 |
| 20260505061414 | 7 | 255 | 0.0 | 0.0 | 0.00 | 1.24 | 1.24 | 97 | 1016.8 |
| 20260505060911 | 6 | 252 | 0.0 | 0.0 | 0.00 | 1.24 | 1.24 | 97 | 1016.5 |
| 20260505060408 | 6 | 251 | 0.0 | 0.0 | 0.00 | 1.24 | 1.24 | 97 | 1016.4 |
| 20260505055904 | 6 | 249 | 0.0 | 0.0 | 0.00 | 1.24 | 1.24 | 97 | 1016.8 |
| 20260505055400 | 7 | 246 | 0.0 | 0.0 | 0.00 | 1.24 | 1.24 | 97 | 1016.4 |
| 20260505054857 | 7 | 252 | 0.0 | 0.0 | 0.00 | 1.24 | 1.24 | 97 | 1016.9 |
| 20260505054354 | 7 | 252 | 0.0 | 0.0 | 0.00 | 1.24 | 1.24 | 97 | 1016.5 |
| 20260505053853 | 7 | 245 | 1.6 | 1.6 | 0.13 | 1.24 | 1.24 | 97 | 1016.9 |
| 20260505053349 | 7 | 253 | 0.0 | 0.0 | 0.13 | 1.24 | 1.24 | 97 | 1017.0 |
| 20260505052846 | 7 | 254 | 0.0 | 0.0 | 0.00 | 1.22 | 1.22 | 96 | 1016.7 |
| 20260505052343 | 7 | 261 | 0.0 | 0.0 | 0.00 | 1.22 | 1.22 | 96 | 1017.0 |
| 20260505051840 | 6 | 284 | 1.6 | 1.6 | 0.18 | 1.22 | 1.22 | 96 | 1017.1 |
| 20260505051337 | 6 | 260 | 0.0 | 1.6 | 0.18 | 1.22 | 1.22 | 97 | 1017.0 |
| 20260505050835 | 7 | 262 | 1.6 | 1.6 | 0.00 | 1.19 | 1.19 | 97 | 1016.9 |
| 20260505050334 | 7 | 255 | 0.0 | 0.0 | 0.00 | 1.19 | 1.19 | 97 | 1016.9 |
| 20260505041301 | 7 | 265 | 3.2 | 3.2 | 0.00 | 1.19 | 1.19 | 95 | 1016.5 |
| 20260505040758 | 7 | 266 | 3.2 | 3.2 | 0.00 | 1.19 | 1.19 | 96 | 1016.7 |
| 20260505040255 | 7 | 289 | 4.8 | 4.8 | 0.00 | 1.19 | 1.19 | 95 | 1016.5 |
| 20260505035752 | 7 | 247 | 1.6 | 1.6 | 0.00 | 1.19 | 1.19 | 95 | 1016.2 |
| 20260505035248 | 7 | 259 | 0.0 | 0.0 | 0.00 | 1.19 | 1.19 | 95 | 1016.5 |
| 20260505034745 | 7 | 263 | 0.0 | 0.0 | 0.00 | 1.19 | 1.19 | 95 | 1016.3 |
| 20260505034242 | 7 | 265 | 1.6 | 1.6 | 0.00 | 1.19 | 1.19 | 95 | 1016.3 |
| 20260505033738 | 7 | 277 | 0.0 | 0.0 | 0.00 | 1.19 | 1.19 | 94 | 1016.2 |
| 20260505033236 | 7 | 242 | 0.0 | 1.6 | 0.13 | 1.19 | 1.19 | 94 | 1015.7 |
| 20260505032734 | 7 | 200 | 1.6 | 3.2 | 0.13 | 1.19 | 1.19 | 94 | 1015.6 |
| 20260505032230 | 7 | 260 | 0.0 | 0.0 | 0.18 | 1.17 | 1.17 | 94 | 1016.2 |
| 20260505031727 | 7 | 258 | 0.0 | 1.6 | 0.30 | 1.17 | 1.17 | 93 | 1016.7 |
| 20260505031223 | 7 | 269 | 0.0 | 0.0 | 0.61 | 1.14 | 1.14 | 92 | 1016.9 |
| 20260505030721 | 7 | 277 | 0.0 | 0.0 | 0.61 | 1.12 | 1.12 | 92 | 1016.4 |
| 20260505030217 | 7 | 288 | 3.2 | 3.2 | 0.13 | 1.04 | 1.04 | 92 | 1016.4 |